SCP
0 0 0 0 0 0 0 0 0 0 0 0 0 0 0 0 0 0 0 0 0 0 0 0 0 0 0 0 0 0 0 0 0 0 0 0 0 0
0 0 0 0 0 0 0 0 0 0 0 0 0 0 0 0 0 0 0 0 0 0 0 0 0 0 0 0 0 0 0 0 0 0 0 0 0 0
0 0 0 0 0 0 0 0 0 0 0 0 0 0 0 0 0 0 0 0 0 0 0 0 0 0 0 0 0 0 0 0 0 0 0 0 0 0
0 0 0 0 0 0 0 0 0 0 0 0 0 0 0 0 0 0 0 0 0 0 0 0 0 0 0 0 0 0 0 0 0 0 0 0 0 0
0 0 0 0 0 0 0 0 0 0 0 0 0 0 0 0 0 0 0 0 0 0 0 0 0 0 0 0 0 0 0 0 0 0 0 0 0 0
0 0 0 0 0 0 0 0 0 0 0 0 0 0 0 0 0 0 0 0 0 0 0 0 0 0 0 0 0 0 0 0 0 0 0 0 0 0
0 0 0 0 0 0 0 0 0 0 0 0 0 0 0 0 0 0 0 0 0 0 0 0 0 0 0 0 0 0 0 0 0 0 0 0 0 0
0 0 0 0 0 0 0 0 0 0 0 0 0 0 0 0 0 0 0 0 0 0 0 0 0 0 0 0 0 0 0 0 0 0 0 0 0 0
0 0 0 0 0 0 0 0 0 0 0 0 0 0 0 0 0 0 0 0 0 0 0 0 0 0 0 0 0 0 0 0 0 0 0 0 0 0
0 0 0 0 0 0 0 0 0 0 0 0 0 0 0 0 0 0 0 0 0 0 0 0 0 0 0 0 0 0 0 0 0 0 0 0 0 0
0 0 0 0 0 0 0 0 0 0 0 0 0 0 0 0 0 0 0 0 0 0 0 0 0 0 0 0 0 0 0 0 0 0 0 0 0 0
0 0 0 0 0 0 0 0 0 0 0 0 0 0 0 0 0 0 0 0 0 0 0 0 0 0 0 0 0 0 0 0 0 0 0 0 0 0
0 0 0 0 0 0 0 0 0 0 0 0 0 0 0 0 0 0 0 0 0 0 0 0 0 0 0 0 0 0 0 0 0 0 0 0 0 0
0 0 0 0 0 0 0 0 0 0 0 0 0 0 0 0 0 0 0 0 0 0 0 0 0 0 0 0 0 0 0 0 0 0 0 0 0 0
0 0 0 0 0 0 0 0 0 0 0 0 0 0 0 0 0 0 0 0 0 0 0 0 0 0 0 0 0 0 0 0 0 0 0 0 0 0
0 0 0 0 0 0 0 0 0 0 0 0 0 0 0 0 0 0 0 0 0 0 0 0 0 0 0 0 0 0 0 0 0 0 0 0 0 0
0 0 0 0 0 0 0 0 0 0 0 0 0 0 0 0 0 0 0 0 0 0 0 0 0 0 0 0 0 0 0 0 0 0 0 0 0 0
0 0 0 0 0 0 0 0 0 0 0 0 0 0 0 0 0 0 0 0 0 0 0 0 0 0 0 0 0 0 0 0 0 0 0 0 0 0
0 0 0 0 0 0 0 0 0 0 0 0 0 0 0 0 0 0 0 0 0 0 0 0 0 0 0 0 0 0 0 0 0 0 0 0 0 0
0 0 0 0 0 0 0 0 0 0 0 0 0 0 0 0 0 0 0 0 0 0 0 0 0 0 0 0 0 0 0 0 0 0 0 0 0 0
0 0 0 0 0 0 0 0 0 0 0 0 0 0 0 0 0 0 0 0 0 0 0 0 0 0 0 0 0 0 0 0 0 0 0 0 0 0
0 0 0 0 0 0 0 0 0 0 0 0 0 0 0 0 0 0 0 0 0 0 0 0 0 0 0 0 0 0 0 0 0 0 0 0 0 0
0 0 0 0 0 0 0 0 0 0 0 0 0 0 0 0 0 0 0 0 0 0 0 0 0 0 0 0 0 0 0 0 0 0 0 0 0 0
Wind_Speed
1 2 1 1 1 2 2 3 3 2 1 0 1 2 2 3 5 4 4 7 8 7 6 7 7 8 8 8 8 7 7 7 7 8 8 7 7 6
1 2 1 1 1 1 2 2 2 3 2 1 1 1 2 4 6 5 5 9 10 9 8 9 9 10 10 9 9 9 8 8 8 9 9 9 9 9
1 2 2 2 2 2 2 2 2 3 4 2 1 2 3 4 4 4 4 4 5 10 9 9 10 10 10 10 10 9 9 9 8 8 8 8 9 9
2 2 2 2 2 2 2 3 3 3 4 4 2 2 2 2 3 3 4 4 4 8 9 10 9 9 9 9 9 9 8 8 8 8 7 7 8 8
2 2 2 3 2 2 3 3 3 4 3 4 3 2 2 2 2 3 4 3 3 5 7 8 8 8 8 8 8 7 7 7 7 7 7 7 7 7
2 2 2 2 3 3 3 4 4 5 4 4 4 2 2 1 2 2 2 2 2 3 4 4 6 6 6 6 6 6 6 5 5 6 6 6 6 6
2 2 3 4 5 4 4 4 5 5 4 4 3 2 2 1 1 1 1 1 1 1 1 2 2 2 2 3 4 4 4 4 4 4 4 4 4 4
2 2 3 4 5 6 7 7 7 6 6 4 3 3 2 2 2 2 2 1 0 0 1 1 1 1 1 1 2 3 3 3 3 3 3 3 3 3
2 2 2 3 4 4 6 7 6 6 6 5 4 4 3 3 4 3 2 1 1 1 1 0 0 0 1 0 1 1 2 2 2 2 2 2 2 2
2 3 3 3 4 5 5 5 4 3 2 3 3 3 3 3 4 3 2 2 1 1 1 0 0 1 1 0 0 1 1 2 2 2 2 1 1 1
2 2 3 3 5 7 6 5 4 3 3 4 4 3 3 4 4 3 3 2 0 0 1 1 0 0 1 1 1 1 2 2 2 2 2 2 2 1
2 2 3 4 6 7 6 5 4 2 2 3 3 3 3 3 4 3 3 2 1 1 1 1 1 1 1 1 1 1 2 3 3 3 3 3 3 2
3 2 2 5 6 6 5 4 4 4 3 3 3 2 2 2 1 1 1 2 2 1 2 2 1 1 1 1 1 1 2 1 1 2 3 4 4 3
4 3 3 6 6 6 4 5 6 6 4 3 2 1 1 1 0 0 0 1 1 2 2 2 2 2 1 1 2 1 1 1 1 2 2 2 4 5
3 5 6 7 6 4 5 6 6 4 3 3 2 1 0 0 0 0 0 0 0 1 0 2 2 2 2 2 2 1 2 1 2 2 2 2 3 3
4 6 7 7 5 5 4 4 3 3 3 2 2 1 1 1 1 0 0 0 0 1 1 0 1 2 1 2 2 2 2 2 2 2 2 2 3 3
6 4 3 3 3 3 2 2 2 2 2 2 2 2 1 1 0 0 1 1 0 1 1 1 0 0 1 2 2 3 2 2 2 2 2 2 3 3
7 4 4 4 4 3 3 2 2 2 2 2 2 2 2 2 1 1 1 1 1 1 1 1 0 0 1 2 4 4 3 3 3 2 2 3 4 3
5 4 4 4 4 4 3 3 3 3 2 3 2 2 2 2 2 1 1 1 1 1 2 1 1 1 2 4 2 3 4 3 2 2 3 3 4 4
4 5 5 4 4 4 4 4 3 3 3 3 3 3 3 2 2 2 2 2 2 2 2 1 2 2 3 4 3 3 4 4 3 3 3 3 4 5
5 5 4 4 4 4 4 4 4 4 3 3 3 3 3 3 3 3 3 3 2 2 2 3 3 3 2 2 3 3 3 4 5 4 3 3 4 3
5 5 5 5 5 4 4 4 4 3 4 3 3 3 3 3 3 3 3 3 3 3 3 3 2 1 2 2 4 4 4 3 3 5 6 5 3 4
5 5 5 5 5 4 4 5 5 4 4 4 4 4 4 3 3 3 3 3 3 3 3 2 2 1 2 3 3 4 5 5 3 3 3 5 8 10
Wind_Direction
158 150 150 166 167 171 167 167 157 155 143 40 38 28 39 54 50 50 56 63 66 73 84 85 78 73 72 71 71 73 75 73 71 70 70 73 76 75
138 128 123 118 122 136 151 150 149 147 143 102 65 51 54 66 62 56 57 65 65 67 73 77 77 75 73 73 73 72 73 76 79 78 76 74 73 73
114 121 114 112 117 129 133 128 128 131 133 112 78 73 68 70 61 61 61 58 64 66 70 76 76 75 74 73 71 71 73 75 74 77 77 76 76 76
122 116 112 113 103 112 123 125 130 131 135 135 109 87 75 78 72 71 63 63 66 67 69 71 74 74 73 72 71 67 67 69 68 71 74 78 80 78
124 124 123 117 105 108 112 115 116 113 114 130 124 104 89 85 78 74 65 50 65 68 68 66 68 71 70 71 72 71 69 68 67 68 70 72 74 75
108 115 117 126 129 126 116 115 116 112 112 119 119 111 97 90 98 96 77 53 50 53 59 61 61 65 66 68 72 76 78 77 75 73 72 71 72 75
90 95 107 113 123 130 131 133 129 126 125 126 125 117 116 137 149 161 124 89 50 42 50 47 46 52 56 67 79 81 87 91 86 80 78 76 74 75
114 95 96 101 113 112 118 130 140 143 145 143 145 157 169 170 156 154 140 132 128 48 98 51 67 62 46 70 95 98 103 105 101 96 89 84 82 79
133 127 120 107 110 115 110 110 111 120 143 154 160 179 181 181 168 166 175 172 179 149 148 105 51 320 311 32 115 130 130 128 120 117 115 110 100 88
137 143 139 130 132 130 122 113 107 108 130 150 166 179 177 177 179 173 164 136 94 95 165 178 259 280 336 344 5 185 165 159 162 166 163 161 157 134
140 137 143 138 136 134 131 126 115 98 89 97 106 112 125 136 147 137 134 139 160 226 181 194 216 295 298 293 280 272 245 225 223 215 205 200 196 211
142 133 137 141 140 142 140 140 140 137 118 99 84 83 97 115 135 158 169 168 158 212 179 185 178 194 261 269 281 275 260 245 238 234 224 224 224 232
163 160 148 139 139 143 142 145 153 144 130 116 103 90 86 93 118 136 165 181 188 219 185 182 186 195 230 270 284 265 251 263 254 245 240 239 240 234
173 166 149 140 137 138 135 127 127 127 123 118 114 108 111 124 178 202 186 206 224 237 208 187 191 194 205 242 263 271 267 264 254 256 261 255 247 238
156 149 141 138 131 124 119 125 129 129 131 135 150 169 189 222 106 67 38 37 9 341 213 213 201 186 214 239 254 267 281 278 250 257 265 265 268 262
129 123 122 122 117 116 115 124 133 144 151 160 166 159 137 131 135 140 174 267 40 339 8 19 212 195 210 236 244 261 263 271 272 259 264 270 269 259
137 122 121 125 125 124 124 132 142 143 151 160 162 160 159 161 178 163 160 142 176 280 315 355 41 155 240 245 257 261 262 265 264 258 254 277 278 268
140 151 159 160 166 167 168 165 168 176 179 176 175 176 176 180 183 161 154 174 210 260 277 293 306 247 262 244 234 255 260 263 271 261 250 270 283 281
156 175 177 181 183 179 186 189 192 195 185 181 189 194 190 189 186 192 192 205 244 269 279 277 265 241 274 294 287 225 247 268 268 266 259 255 268 281
188 190 192 190 190 189 189 193 197 193 187 191 198 199 194 190 194 206 212 217 231 249 267 267 256 247 251 273 285 285 235 243 256 267 273 268 269 277
195 198 196 192 191 192 193 192 195 199 195 192 198 200 197 194 205 213 214 216 225 239 257 268 271 257 243 239 261 278 278 236 235 251 267 276 287 288
195 195 197 196 194 195 193 190 195 200 197 200 204 203 201 201 208 211 214 218 229 241 255 271 288 243 209 233 266 283 291 303 261 239 246 247 271 284
198 197 198 199 198 194 190 190 195 203 203 202 204 203 199 202 210 215 219 225 237 249 259 267 269 244 245 252 267 279 289 299 299 300 284 253 246 260